Other Public Products
Issued by NWS Grand Forks, ND

Home | Current Version | Previous Version | Graphics & Text | Print | Product List | Glossary On
Versions: 1 2 3 4 5 6 7 8 9 10 11 12 13 14 15 16 17 18 19 20 21 22 23 24 25 26 27 28 29 30 31 32 33 34 35 36 37 38 39 40 41 42 43 44 45 46 47 48 49 50
000
FPUS83 KFGF 271610
OPUFGF
PRAIRIE TO PINES WEATHER ROUNDUP
NATIONAL WEATHER SERVICE EASTERN NORTH DAKOTA/GRAND FORKS ND
1100 AM CDT SAT MAY 27 2017

 **SATELLITE DATA USED TO AUGMENT SKY COVER AT AUTOMATED STATIONS**
 *****  WEATHER ACROSS EASTERN NORTH DAKOTA  *****

CITY           SKY/WX    TMP DP  RH WIND       PRES   REMARKS
GRAND FORKS    FAIR      73  43  33 W21       29.77S
GRAND FORKS AF FAIR      71  44  36 W12G24    29.78S
GRAND CITY NWS NOT AVBL
BUXTON         NOT AVBL
DEVILS LAKE    FAIR      64  43  46 W15G23    29.81S
FARGO          FAIR      73  42  32 W12       29.81F
WAHPETON ARPT  FAIR      70  37  30 W14       29.84F
$$

 *****  WEATHER ACROSS CENTRAL AND WESTERN NORTH DAKOTA  *****

CITY           SKY/WX    TMP DP  RH WIND       PRES   REMARKS
JAMESTOWN      FAIR      69  39  33 W15       29.83F
BISMARCK       FAIR      70  42  36 W17G24    29.89S
MINOT          FAIR      68  41  37 W15       29.81S
MINOT AFB      FAIR      67  42  40 W13       29.79S
GARRISON         N/A     62  42  47 W18       29.85S
WILLISTON      FAIR      68  42  38 W14       29.86S
DICKINSON      FAIR      64  37  36 W21       29.90F
HETTINGER      FAIR      64  36  35 W17G26    29.96S
$$

 *****  OTHER OBSERVATIONS NORTHEAST NORTH DAKOTA  *****

CITY           SKY/WX    TMP DP  RH WIND       PRES   REMARKS
WALHALLA       NOT AVBL
LANGDON        FAIR      68  41  37 W17       29.77S
CAVALIER       FAIR      68  45  42 W16       29.74S
GRAFTON        FAIR      68  46  45 W18       29.77F
CANDO          NOT AVBL
FORT TOTTEN      N/A     67  43  41 W7        29.95S
ROLLA          FAIR      64  43  45 SW16      29.78S
RUGBY          NOT AVBL
 ***** THE ABOVE OBSERVATIONS ARE NON NWS ARE NOT QUALITY
        CONTROLLED AND MAY MIS-REPORT RAIN FOR SNOW...
$$

 *****  OTHER OBSERVATIONS SOUTHEAST NORTH DAKOTA *****

CITY           SKY/WX    TMP DP  RH WIND       PRES   REMARKS
COOPERSTOWN    FAIR      70  41  35 W15G24    29.82F
VALLEY CITY    FAIR      68  41  37 W13G21    29.85F
OAKES          NOT AVBL
GWINNER        SUNNY     70  43  37 MISG      29.86F
SHEYENNE NWR     N/A     72  46  39 W7        29.95S
BUFFALO        NOT AVBL
WYNDMERE         N/A     73  39  29 W12         N/A
 ***** THE ABOVE OBSERVATIONS ARE NON NWS ARE NOT QUALITY
       CONTROLLED AND MAY MIS-REPORT RAIN FOR SNOW...
$$

  *****  WEATHER ACROSS NORTHERN MINNESOTA  *****

CITY           SKY/WX    TMP DP  RH WIND       PRES   REMARKS
FLAG ISLAND    FAIR      57  48  72 SE13      29.73S
WARROAD        FAIR      68  46  45 SW7       29.75F
ROSEAU         FAIR      70  46  43 SW12      29.74F
HALLOCK        FAIR      70  43  37 W15       29.74S
THF RVR FALLS  FAIR      68  42  38 W16G22    29.79S
HALSTAD          N/A     72  41  33 W15         N/A
FOSSTON        FAIR      66  41  39 W12G18    29.82S
BAUDETTE       FAIR      71  38  29 W12G20    29.75F
WASKISH        CLOUDY    66  45  45 SW10      29.80S
CROOKSTON      FAIR      72  39  30 W15G23    29.78F
$$
  *****  WEATHER ACROSS CENTRAL AND WEST MINNESOTA  *****

CITY           SKY/WX    TMP DP  RH WIND       PRES   REMARKS
BEMIDJI        FAIR      70  40  33 SW13      29.81S
PARK RAPIDS    FAIR      71  43  36 W14       29.84S
WADENA         FAIR      66  45  45 SW9       29.85F
DETROIT LAKES  FAIR      68  45  42 SW6       29.85S
MOORHEAD       FAIR      72  39  30 W13       29.83F
FERGUS FALLS   FAIR      70  48  46 W6        29.83F
ELBOW LAKE     FAIR      69  49  49 SW8       29.87F
MORRIS MN      FAIR      70  48  46 SW9       29.87F
STAPLES        FAIR      68  45  42 SW10      29.86F
WHEATON        FAIR      72  39  30 W14       29.88S
$$
  *****  WEATHER ELSEWHERE ACROSS MINNESOTA  *****

CITY           SKY/WX    TMP DP  RH WIND       PRES   REMARKS
DULUTH         FAIR      67  45  45 NW10      29.84F
INTRNTL FALLS  FAIR      69  42  37 SW10G18   29.78F
ELY            FAIR      63  46  55 SW7       29.83S
CLOQUET        FAIR      66  39  37 SW9       29.85F
BRAINERD       FAIR      65  46  50 SW7       29.87S
HIBBING        FAIR      62  43  49 CALM      29.84S
ALEXANDRIA     FAIR      68  45  43 SW12      29.89F
SAINT CLOUD    FAIR      66  50  56 W8        29.88F
MINNEAPOLIS    PTSUNNY   70  43  37 VRB5      29.90R
$$

  *****  WEATHER ACROSS SOUTH DAKOTA  *****

CITY           SKY/WX    TMP DP  RH WIND       PRES   REMARKS
SIOUX FALLS    CLOUDY    59  53  80 VRB5      29.95R
BROOKINGS      FAIR      62  49  62 W6        29.93
WATERTOWN      PTSUNNY   64  47  53 W7        29.91S
HURON          CLOUDY    66  44  45 NW16      29.92S
SISSETON         N/A     73  45  36 W18       29.86S
ABERDEEN       FAIR      67  43  41 SW18      29.90S
MITCHELL       CLOUDY    63  53  70 W10       29.95S
PIERRE         FAIR      61  48  62 W7        29.97S
MOBRIDGE       FAIR      70  40  33 W9        29.90S
RAPID CITY     FAIR      63  39  41 N16       30.02R
$$

  *****  SOME WEATHER IN NEARBY STATES *****

CITY           SKY/WX    TMP DP  RH WIND       PRES   REMARKS
GLASGOW MT     FAIR      65  41  41 NW9       29.91S
GREAT FALLS MT FAIR      61  40  45 SW13      30.09R
CHEYENNE WY    CLOUDY    44  40  85 N13       30.14R
SCOTTSBLUFF NE CLOUDY    58  45  62 NW13      30.07S
OMAHA NE       RAIN      58  53  84 N9        29.88F
DES MOINES IA  CLOUDY    69  64  84 E6        29.89F THUNDER
DAVENPORT IA   CLOUDY    62  58  86 E8        29.94R
CHICAGO IL     FAIR      67  53  61 E7        29.91F
EAU CLAIRE WI  FAIR      70  47  43 NW8       29.88S
LA CROSSE WI   FAIR      72  60  66 SW3       29.89R
$$

  *****  SOME NATIONAL WEATHER *****

CITY           SKY/WX    TMP DP  RH WIND       PRES   REMARKS
LA GUARDIA NY  PTSUNNY   71  53  52 NW7       29.86S
RALEIGH NC     FAIR      83  64  52 SW3       29.94F
ATLANTA GA     PTSUNNY   79  64  60 SW7       30.06F
NEW ORLEANS LA PTSUNNY   85  75  72 S8        30.05S HX  93
OKLAHOMA CITY  FAIR      86  68  54 S18       29.74S
ALBUQUERQUE NM FAIR      69  17  13 SW10      30.10F
SALT LAKE CITY FAIR      58  38  47 NW7       30.21R
LOS ANGELES CA PTSUNNY   62  54  74 W8        30.07R
BOISE ID       FAIR      62  41  46 VRB3      30.19R
SEATTLE WA     FAIR      66  51  58 W5        30.10R
$$

*** WEATHER ACROSS MANITOBA...SASKATCHEWAN AND ONTARIO ***
                ***ONTARIO***

CITY           SKY/WX    TMP DP  RH WIND       PRES   REMARKS
GERALDTON      PTSUNNY   66  57  72 S12G18    29.76F
THUNDER BAY    CLOUDY    66  50  55 SW3       29.78S
SIOUX LOOKOUT  PTSUNNY   64  50  59 S7        29.73S
TORONTO        PTSUNNY   64  54  68 VRB2      29.90S
BIG TROUT LK   MOSUNNY   66  52  59 SE5       29.65S
PICKLE LAKE    CLOUDY    66  46  48 SW12      29.69F
DRYDEN         SUNNY     64  46  52 SW14G21   29.74S
KENORA         MOSUNNY   63  45  51 SW8       29.74S
$$
                *** MANITOBA***

CITY           SKY/WX    TMP DP  RH WIND       PRES   REMARKS
BRANDON        MOSUNNY   63  43  48 W14       29.73S
DAUPHIN        LGT RAIN  59  48  67 W18       29.67F
ISLAND LAKE    PTSUNNY   59  50  72 SW5       29.62R
PILOT MOUND      N/A     64  36  34 W10         N/A
THE PAS        LGT RAIN  50  46  87 N10       29.62R
THOMPSON       CLOUDY    46  46 100 NE9       29.58R FOG
WINNIPEG       MOSUNNY   66  43  42 W12       29.71S
LYNN LAKE      LGT RAIN  41  41 100 N12       29.67R
CHURCHILL      CLOUDY    37  36  93 NE9       29.71R
GILLAM         PTSUNNY   55  52  88 NE5       29.61R
$$
                ***SASKATCHEWAN***

CITY           SKY/WX    TMP DP  RH WIND       PRES   REMARKS
ESTEVAN        MOSUNNY   66  41  39 NW21G29   29.80S
KINDERSLEY     PTSUNNY   64  43  45 NW17G23   29.89S
LLOYDMINSTER   MOSUNNY   63  45  51 N6        29.88S
PRINCE ALBERT  MOSUNNY   59  37  44 N21G32    29.78R
REGINA         PTSUNNY   61  37  41 W7        29.80F
YORKTON          N/A     57  43  58 NW21G28   29.73R



USA.gov is the U.S. government's official web portal to all federal, state and local government web resources and services.